Weather History for Tahlequah, OK

Change the Weather History Date:

Thursday, December 12, 2013

  Actual Average (KMKO) Record (KMKO)
Temperature  
Mean Temperature 26 °F -  
Max Temperature 41 °F 50 °F 63 °F (2004)
Min Temperature 12 °F 30 °F 10 °F (2000)
Degree Days  
Heating Degree Days 38    
Moisture  
Dew Point 20 °F    
Average Humidity 78    
Maximum Humidity 100    
Minimum Humidity 49    
Precipitation  
Precipitation 0.00 in - - ()
Sea Level Pressure  
Sea Level Pressure 30.49 in    
Wind  
Wind Speed 2 mph (South)    
Max Wind Speed 9 mph    
Max Gust Speed -    
Visibility 10 miles    
Events      
Averages and records for this station are not official NWS values.
T = Trace of Precipitation, MM = Missing Value Source: NWS Daily Summary

Daily Weather History Graph

Daily Weather History Graph

Search for Another Location

Airport:

Trip Planner

Search our weather history database for the weather conditions in past years. The results will help you decide how hot, cold, wet, or windy it might be!

Date:

Astronomy

Dec. 12, 2013 Rise Set
Actual Time 7:21 AM CST 5:06 PM CST
Civil Twilight 6:52 AM CST 5:35 PM CST
Nautical Twilight 6:20 AM CST 6:07 PM CST
Astronomical Twilight 5:49 AM CST 6:38 PM CST
Moon 2:08 PM CST (12/12) 2:51 AM CST (12/12)
Length of Visible Light 10h 42m
Length of Day
9h 45m
Waxing Gibbous, 80% of the Moon is Illuminated
Dec 12
Waxing Gibbous
Dec 17
Full
Dec 25
Last Quarter
Jan 1
New
Jan 7
First Quarter

Hourly Weather History & Observations

Time (CST) Temp. Windchill Dew Point Humidity Pressure Visibility Wind Dir Wind Speed Gust Speed Precip Events Conditions
12:15 AM 17.6 °F - 14.0 °F 86% 30.61 in 10.0 mi Calm Calm - N/A   Clear
12:35 AM 17.6 °F - 14.0 °F 86% 30.61 in 10.0 mi Calm Calm - N/A   Clear
12:55 AM 14.0 °F - 12.2 °F 93% 30.61 in 10.0 mi Calm Calm - N/A   Clear
1:15 AM 14.0 °F - 12.2 °F 93% 30.61 in 10.0 mi Calm Calm - N/A   Clear
1:35 AM 15.8 °F 10.2 °F 14.0 °F 93% 30.59 in 10.0 mi North 3.5 mph - N/A   Clear
1:55 AM 19.4 °F - 14.0 °F 80% 30.59 in 10.0 mi Calm Calm - N/A   Clear
2:15 AM 17.6 °F - 14.0 °F 86% 30.59 in 10.0 mi Calm Calm - N/A   Clear
2:35 AM 17.6 °F - 12.2 °F 79% 30.59 in 10.0 mi Calm Calm - N/A   Clear
2:55 AM 15.8 °F - 12.2 °F 86% 30.59 in 10.0 mi Calm Calm - N/A   Clear
3:15 AM 14.0 °F - 12.2 °F 93% 30.59 in 10.0 mi Calm Calm - N/A   Clear
3:35 AM 14.0 °F - 12.2 °F 93% 30.59 in 10.0 mi Calm Calm - N/A   Clear
3:55 AM 14.0 °F - 12.2 °F 93% 30.58 in 10.0 mi Calm Calm - N/A   Clear
4:15 AM 14.0 °F - 12.2 °F 93% 30.58 in 10.0 mi Calm Calm - N/A   Clear
4:35 AM 14.0 °F - 12.2 °F 93% 30.57 in 10.0 mi Calm Calm - N/A   Clear
4:55 AM 12.2 °F - 12.2 °F 100% 30.57 in 10.0 mi Calm Calm - N/A   Clear
5:15 AM 12.2 °F - 12.2 °F 100% 30.58 in 10.0 mi Calm Calm - N/A   Clear
5:35 AM 12.2 °F - 10.4 °F 92% 30.58 in 10.0 mi Calm Calm - N/A   Clear
5:55 AM 12.2 °F - 12.2 °F 100% 30.58 in 10.0 mi Calm Calm - N/A   Clear
6:15 AM 12.2 °F - 10.4 °F 92% 30.58 in 10.0 mi Calm Calm - N/A   Clear
6:35 AM 12.2 °F - 12.2 °F 100% 30.58 in 10.0 mi Calm Calm - N/A   Clear
6:55 AM 12.2 °F - 10.4 °F 92% 30.56 in 10.0 mi Calm Calm - N/A   Clear
7:15 AM 12.2 °F - 12.2 °F 100% 30.57 in 10.0 mi Calm Calm - N/A   Clear
7:35 AM 14.0 °F - 12.2 °F 93% 30.57 in 7.0 mi Calm Calm - N/A   Clear
7:55 AM 15.8 °F - 14.0 °F 93% 30.57 in 7.0 mi Calm Calm - N/A   Clear
8:15 AM 17.6 °F - 15.8 °F 93% 30.57 in 7.0 mi Calm Calm - N/A   Clear
8:35 AM 19.4 °F - 17.6 °F 93% 30.57 in 7.0 mi Calm Calm - N/A   Clear
8:55 AM 21.2 °F - 19.4 °F 93% 30.58 in 7.0 mi Calm Calm - N/A   Clear
9:15 AM 26.6 °F - 21.2 °F 80% 30.58 in 10.0 mi Calm Calm - N/A   Clear
9:35 AM 28.4 °F - 23.0 °F 80% 30.59 in 10.0 mi Calm Calm - N/A   Clear
9:55 AM 32.0 °F - 23.0 °F 69% 30.59 in 7.0 mi Calm Calm - N/A   Clear
10:15 AM 32.0 °F - 24.8 °F 75% 30.59 in 10.0 mi Calm Calm - N/A   Clear
10:35 AM 35.6 °F 30.7 °F 26.6 °F 70% 30.59 in 10.0 mi South 5.8 mph - N/A   Clear
10:55 AM 35.6 °F 32.8 °F 24.8 °F 65% 30.59 in 10.0 mi SSW 3.5 mph - N/A   Clear
11:15 AM 37.4 °F 30.8 °F 23.0 °F 56% 30.58 in 10.0 mi SW 9.2 mph - N/A   Clear
11:35 AM 37.4 °F 31.4 °F 23.0 °F 56% 30.56 in 10.0 mi SW 8.1 mph - N/A   Clear
11:55 AM 37.4 °F 32.8 °F 23.0 °F 56% 30.55 in 10.0 mi SW 5.8 mph - N/A   Clear
12:15 PM 39.2 °F 33.6 °F 23.0 °F 52% 30.54 in 10.0 mi SW 8.1 mph - N/A   Clear
12:35 PM 41.0 °F 38.0 °F 23.0 °F 49% 30.52 in 10.0 mi SW 4.6 mph - N/A   Clear
12:55 PM 41.0 °F 39.0 °F 23.0 °F 49% 30.51 in 10.0 mi SSW 3.5 mph - N/A   Clear
1:15 PM 41.0 °F 36.4 °F 23.0 °F 49% 30.50 in 10.0 mi South 6.9 mph - N/A   Clear
1:35 PM 41.0 °F 36.4 °F 23.0 °F 49% 30.49 in 10.0 mi SSW 6.9 mph - N/A   Clear
1:55 PM 41.0 °F 36.4 °F 23.0 °F 49% 30.48 in 10.0 mi SSW 6.9 mph - N/A   Clear
2:15 PM 41.0 °F 37.1 °F 24.8 °F 53% 30.47 in 10.0 mi SSW 5.8 mph - N/A   Clear
2:35 PM 39.2 °F 33.6 °F 24.8 °F 56% 30.46 in 10.0 mi SW 8.1 mph - N/A   Clear
2:55 PM 39.2 °F 35.9 °F 26.6 °F 61% 30.44 in 10.0 mi SSW 4.6 mph - N/A   Clear
3:15 PM 37.4 °F 32.8 °F 26.6 °F 65% 30.43 in 10.0 mi South 5.8 mph - N/A   Clear
3:35 PM 37.4 °F 34.9 °F 24.8 °F 60% 30.42 in 10.0 mi SSE 3.5 mph - N/A   Clear
3:55 PM 35.6 °F 29.9 °F 24.8 °F 65% 30.42 in 10.0 mi South 6.9 mph - N/A   Clear
4:15 PM 35.6 °F 32.8 °F 24.8 °F 65% 30.41 in 10.0 mi South 3.5 mph - N/A   Clear
4:35 PM 33.8 °F 30.8 °F 24.8 °F 70% 30.39 in 10.0 mi SSE 3.5 mph - N/A   Clear
4:55 PM 33.8 °F - 24.8 °F 70% 30.39 in 10.0 mi Calm Calm - N/A   Clear
5:15 PM 32.0 °F - 24.8 °F 75% 30.39 in 10.0 mi Calm Calm - N/A   Clear
5:35 PM 32.0 °F - 24.8 °F 75% 30.39 in 10.0 mi Calm Calm - N/A   Clear
5:55 PM 32.0 °F 28.7 °F 23.0 °F 69% 30.39 in 10.0 mi SSE 3.5 mph - N/A   Clear
6:15 PM 32.0 °F 28.7 °F 24.8 °F 75% 30.38 in 10.0 mi SE 3.5 mph - N/A   Clear
6:35 PM 32.0 °F 28.7 °F 23.0 °F 69% 30.38 in 10.0 mi SE 3.5 mph - N/A   Clear
6:55 PM 32.0 °F 28.7 °F 23.0 °F 69% 30.38 in 10.0 mi SSE 3.5 mph - N/A   Clear
7:15 PM 32.0 °F 27.5 °F 23.0 °F 69% 30.38 in 10.0 mi SSE 4.6 mph - N/A   Clear
7:35 PM 32.0 °F 28.7 °F 24.8 °F 75% 30.37 in 10.0 mi SSE 3.5 mph - N/A   Clear
7:55 PM 30.2 °F 26.7 °F 24.8 °F 80% 30.37 in 10.0 mi SSE 3.5 mph - N/A   Clear
8:15 PM 30.2 °F - 24.8 °F 80% 30.36 in 10.0 mi Calm Calm - N/A   Clear
8:35 PM 28.4 °F - 24.8 °F 86% 30.36 in 10.0 mi Calm Calm - N/A   Clear
8:55 PM 28.4 °F - 24.8 °F 86% 30.36 in 10.0 mi Calm Calm - N/A   Clear
9:15 PM 28.4 °F 24.6 °F 24.8 °F 86% 30.35 in 10.0 mi SSE 3.5 mph - N/A   Clear
9:35 PM 30.2 °F 26.7 °F 24.8 °F 80% 30.35 in 10.0 mi SSE 3.5 mph - N/A   Clear
9:55 PM 30.2 °F 26.7 °F 26.6 °F 86% 30.34 in 10.0 mi SSE 3.5 mph - N/A   Clear
10:15 PM 30.2 °F 26.7 °F 26.6 °F 86% 30.33 in 10.0 mi SSE 3.5 mph - N/A   Clear
10:35 PM 30.2 °F 24.3 °F 26.6 °F 86% 30.32 in 10.0 mi SSE 5.8 mph - N/A   Clear
10:55 PM 32.0 °F 28.7 °F 26.6 °F 80% 30.31 in 10.0 mi SSE 3.5 mph - N/A   Clear
11:15 PM 30.2 °F - 26.6 °F 86% 30.31 in 10.0 mi Calm Calm - N/A   Clear
11:35 PM 30.2 °F 26.7 °F 26.6 °F 86% 30.29 in 10.0 mi SE 3.5 mph - N/A   Clear
11:55 PM 32.0 °F - 26.6 °F 80% 30.28 in 10.0 mi Calm Calm - N/A   Clear